FW1075 Weather Reports


time (UTC)temp
F
wind
direction
speed
knots
gust
knots
rain 1hr
in
rain 24hr
in
rain mn
in
humidity
%
barometer
mb
20260905220121 79 354 3.5 7.8 0.00 0.00 0.00 59 1008.1
20260905215121 81 2 2.6 5.2 0.00 0.00 0.00 58 1008.0
20260905214121 82 312 2.6 4.3 0.00 0.00 0.00 56 1008.1
20260905213121 82 284 3.5 5.2 0.00 0.00 0.00 56 1008.0
20260905212121 82 281 2.6 6.1 0.00 0.00 0.00 55 1007.9
20260905211121 83 330 3.5 5.2 0.00 0.00 0.00 55 1008.0
20260905210121 84 314 3.5 6.1 0.00 0.00 0.00 54 1008.0
20260905205142 84 311 2.6 4.3 0.00 0.00 0.00 53 1008.0
20260905204121 84 252 2.6 6.1 0.00 0.00 0.00 54 1007.9
20260905203142 82 295 2.6 4.3 0.00 0.00 0.00 56 1007.8
20260905202121 84 315 2.6 5.2 0.00 0.00 0.00 55 1007.8
20260905201121 84 312 2.6 4.3 0.00 0.00 0.00 54 1007.9
20260905200121 86 321 3.5 5.2 0.00 0.00 0.00 54 1007.9
20260905195121 85 281 3.5 7.0 0.00 0.00 0.00 53 1007.9
20260905194121 85 4 3.5 6.1 0.00 0.00 0.00 53 1008.0
20260905193122 85 297 2.6 6.1 0.00 0.00 0.00 51 1008.0
20260905192142 85 90 2.6 4.3 0.00 0.00 0.00 55 1008.1
20260905191121 86 330 1.7 6.1 0.00 0.00 0.00 53 1008.2
20260905190123 85 297 2.6 4.3 0.00 0.00 0.00 54 1008.2
20260905185122 84 49 2.6 5.2 0.00 0.00 0.00 56 1008.2
20260905184143 82 11 1.7 4.3 0.00 0.00 0.00 57 1008.2
20260905183122 81 62 1.7 3.5 0.00 0.00 0.00 58 1008.4
20260905182123 83 3 2.6 4.3 0.00 0.00 0.00 58 1008.5
20260905181143 82 313 2.6 5.2 0.00 0.00 0.00 59 1008.5
20260905180142 82 341 3.5 7.0 0.00 0.00 0.00 60 1008.5
20260905175144 82 334 1.7 4.3 0.00 0.00 0.00 60 1008.5
20260905174121 81 33 3.5 6.1 0.00 0.00 0.00 62 1008.6
20260905173143 80 322 2.6 5.2 0.00 0.00 0.00 64 1008.7
20260905172142 80 307 2.6 5.2 0.00 0.00 0.00 62 1008.8
20260905171122 80 311 3.5 5.2 0.00 0.00 0.00 62 1008.8
20260905170121 80 305 3.5 7.0 0.00 0.00 0.00 63 1008.8
20260905165122 80 16 2.6 5.2 0.00 0.00 0.00 63 1008.8
20260905164122 80 341 3.5 6.1 0.00 0.00 0.00 64 1008.8
20260905163123 79 311 3.5 7.0 0.00 0.00 0.00 62 1008.8
20260905162121 82 308 3.5 5.2 0.00 0.00 0.00 59 1008.8
20260905161122 81 173 3.5 5.2 0.00 0.00 0.00 59 1008.7
20260905160126 81 36 2.6 7.0 0.00 0.00 0.00 60 1008.7
20260905155121 81 351 3.5 8.7 0.00 0.00 0.00 60 1008.8
20260905154121 83 311 2.6 6.1 0.00 0.00 0.00 60 1008.8
20260905153121 81 85 3.5 6.1 0.00 0.00 0.00 62 1008.9
20260905152129 80 247 2.6 5.2 0.00 0.00 0.00 63 1008.8
20260905152122 80 233 2.6 5.2 0.00 0.00 0.00 62 1008.8
20260905151122 78 24 3.5 7.0 0.00 0.00 0.00 66 1008.8
20260905150123 80 257 2.6 4.3 0.00 0.00 0.00 66 1008.8
20260905145145 80 55 3.5 6.1 0.00 0.00 0.00 66 1008.8
20260905144123 80 81 2.6 5.2 0.00 0.00 0.00 67 1008.7
20260905143122 79 286 2.6 5.2 0.00 0.00 0.00 68 1008.6
20260905142122 79 58 3.5 7.0 0.00 0.00 0.00 67 1008.6
20260905141122 78 90 3.5 6.1 0.00 0.00 0.00 69 1008.6
20260905140121 78 40 3.5 7.0 0.00 0.00 0.00 69 1008.6
20260905135121 77 337 3.5 7.8 0.00 0.00 0.00 70 1008.6
20260905134124 77 333 3.5 6.1 0.00 0.00 0.00 69 1008.6
20260905133124 77 333 3.5 5.2 0.00 0.00 0.00 71 1008.7
20260905132123 77 332 2.6 7.0 0.00 0.00 0.00 70 1008.7
20260905131121 77 292 1.7 4.3 0.00 0.00 0.00 70 1008.8
20260905130123 77 298 2.6 4.3 0.00 0.00 0.00 70 1008.8
20260905125121 77 317 2.6 4.3 0.00 0.00 0.00 71 1009.1
20260905124122 75 310 2.6 6.1 0.00 0.00 0.00 73 1009.1
20260905123122 75 309 3.5 5.2 0.00 0.00 0.00 73 1009.1
20260905122123 75 295 2.6 4.3 0.00 0.00 0.00 74 1009.0
20260905121127 74 5 2.6 5.2 0.00 0.00 0.00 75 1009.1
20260905120122 74 294 2.6 4.3 0.00 0.00 0.00 76 1009.1
20260905115124 73 351 1.7 3.5 0.00 0.00 0.00 77 1009.0
20260905114121 73 360 1.7 3.5 0.00 0.00 0.00 79 1008.8
20260905113122 72 324 1.7 3.5 0.00 0.00 0.00 80 1008.8
20260905112143 71 324 0.9 2.6 0.00 0.01 0.00 82 1008.7
20260905111123 70 302 0.9 2.6 0.00 0.01 0.00 84 1008.4
20260905110124 70 113 0.0 0.0 0.00 0.01 0.00 86 1008.4
20260905105126 69 203 0.0 0.0 0.00 0.01 0.00 88 1008.2
20260905104122 68 343 0.0 1.7 0.00 0.01 0.00 88 1008.0
20260905103123 68 309 0.9 1.7 0.00 0.01 0.00 88 1008.1
20260905102143 68 270 0.0 1.7 0.00 0.01 0.00 86 1008.2
20260905101123 69 320 0.0 1.7 0.00 0.01 0.00 85 1008.1
20260905100143 70 155 0.0 1.7 0.00 0.01 0.00 83 1008.1
20260905095121 70 27 0.9 3.5 0.00 0.01 0.00 82 1008.0
20260905094121 70 358 0.9 2.6 0.00 0.01 0.00 82 1007.9
20260905093121 71 337 0.9 2.6 0.00 0.01 0.00 81 1007.9
20260905092121 71 353 0.9 2.6 0.00 0.01 0.00 81 1007.9
20260905091121 71 321 0.9 1.7 0.00 0.01 0.00 81 1007.8
20260905090121 71 21 0.9 1.7 0.00 0.01 0.00 80 1007.8
20260905085121 72 323 0.9 2.6 0.00 0.01 0.00 80 1007.8
20260905084121 72 349 0.9 3.5 0.00 0.01 0.00 80 1007.9
20260905083122 72 3 0.9 2.6 0.00 0.01 0.00 80 1007.9
20260905082121 72 16 1.7 4.3 0.00 0.01 0.00 80 1007.9
20260905081123 72 1 0.9 3.5 0.00 0.01 0.00 81 1007.9
20260905080121 72 336 1.7 3.5 0.00 0.01 0.00 81 1007.9
20260905075142 72 300 0.9 3.5 0.00 0.01 0.00 81 1007.9
20260905074121 72 321 1.7 3.5 0.00 0.01 0.00 80 1007.9
20260905073123 72 313 1.7 3.5 0.00 0.01 0.00 80 1007.9
20260905072121 72 10 0.9 2.6 0.00 0.01 0.00 81 1007.8
20260905071122 72 353 1.7 3.5 0.00 0.01 0.00 81 1007.8
20260905070122 72 360 0.9 2.6 0.00 0.03 0.00 81 1007.8
20260905065143 72 55 0.9 2.6 0.00 0.03 0.00 81 1007.9
20260905064122 72 357 0.9 2.6 0.00 0.03 0.00 81 1008.0
20260905063123 72 289 0.9 3.5 0.00 0.03 0.00 80 1008.1
20260905062122 73 288 0.9 2.6 0.00 0.03 0.00 80 1008.2
20260905061143 73 319 0.9 2.6 0.00 0.03 0.00 79 1008.4
20260905060121 73 295 0.9 1.7 0.00 0.03 0.00 79 1008.4
20260905055121 73 297 0.9 1.7 0.00 0.03 0.00 79 1008.4
20260905054121 73 330 0.9 2.6 0.00 0.03 0.00 78 1008.5
20260905053123 74 304 0.9 2.6 0.00 0.03 0.00 78 1008.6
20260905052122 74 322 1.7 2.6 0.00 0.03 0.00 78 1008.7
20260905051122 74 323 1.7 3.5 0.00 0.03 0.00 77 1008.7
20260905050121 74 302 1.7 3.5 0.00 0.03 0.00 76 1008.7
20260905045122 75 323 1.7 3.5 0.00 0.03 0.00 76 1008.8
20260905044121 75 320 2.6 4.3 0.00 0.03 0.00 75 1008.7
20260905043121 75 299 1.7 4.3 0.00 0.03 0.00 75 1008.8
20260905042142 75 290 1.7 3.5 0.00 0.03 0.00 75 1008.8
20260905041143 75 303 2.6 3.5 0.00 0.03 0.00 75 1008.8
20260905040122 75 330 1.7 4.3 0.00 0.03 0.00 75 1008.8
20260905035121 76 329 1.7 4.3 0.00 0.03 0.03 75 1008.9
20260905034121 76 325 1.7 4.3 0.00 0.03 0.03 74 1008.8
20260905033145 76 302 1.7 3.5 0.00 0.03 0.03 73 1008.8
20260905032125 76 337 2.6 5.2 0.00 0.03 0.03 73 1008.8
20260905031121 76 318 2.6 4.3 0.00 0.03 0.03 72 1008.8
20260905030121 76 308 1.7 5.2 0.00 0.03 0.03 72 1008.8
20260905025123 76 296 1.7 2.6 0.00 0.03 0.03 72 1008.7
20260905024123 76 324 1.7 3.5 0.00 0.03 0.03 72 1008.7
20260905023127 76 313 2.6 4.3 0.00 0.03 0.03 71 1008.8
20260905022122 76 298 2.6 5.2 0.00 0.03 0.03 71 1008.8
20260905021143 75 287 1.7 4.3 0.00 0.03 0.03 72 1008.8
20260905020122 75 298 1.7 4.3 0.00 0.03 0.03 73 1008.9
20260905015143 75 306 1.7 2.6 0.00 0.03 0.03 74 1008.9
20260905014121 75 304 0.9 1.7 0.00 0.03 0.03 73 1008.9
20260905013124 76 295 0.9 2.6 0.00 0.03 0.03 72 1008.9
20260905012121 76 315 1.7 2.6 0.00 0.03 0.03 70 1008.8
20260905011143 76 319 0.9 2.6 0.00 0.03 0.03 69 1008.8
20260905010121 77 275 1.7 2.6 0.00 0.03 0.03 68 1008.8
20260905005142 77 314 1.7 3.5 0.00 0.03 0.03 67 1008.8
20260905004148 77 299 1.7 3.5 0.00 0.03 0.03 67 1008.8
20260905003122 77 315 1.7 3.5 0.00 0.03 0.03 66 1008.7
20260905002121 78 317 1.7 3.5 0.00 0.03 0.03 65 1008.8
20260905001123 78 299 0.9 3.5 0.00 0.03 0.03 64 1008.6
20260905000126 79 281 0.9 4.3 0.00 0.03 0.03 62 1008.6
20260904235121 79 353 1.7 3.5 0.00 0.03 0.03 61 1008.6
20260904234121 80 298 3.5 6.1 0.00 0.03 0.03 61 1008.7
20260904233121 80 294 2.6 4.3 0.00 0.03 0.03 61 1008.5
20260904232146 80 312 2.6 6.1 0.00 0.03 0.03 61 1008.5
20260904231144 81 291 1.7 3.5 0.00 0.03 0.03 62 1008.4
20260904230121 81 310 2.6 5.2 0.00 0.03 0.03 60 1008.4
20260904225122 82 324 2.6 5.2 0.00 0.03 0.03 59 1008.5
20260904224148 82 300 3.5 7.0 0.00 0.03 0.03 59 1008.6
20260904223123 83 328 3.5 7.0 0.00 0.03 0.03 58 1008.4
20260904222122 83 302 2.6 4.3 0.00 0.03 0.03 60 1008.5
20260904221123 84 290 2.6 4.3 0.00 0.03 0.03 59 1008.4